Tracking 30995 objects as of 5-Jul-2025
HD Live streaming from Space Station
objects crossing your sky now

DELTA 1 DEB

Track DELTA 1 DEB now!
10-day predictions


NORAD ID: 10221
Int'l Code: 1977-065AY
Perigee: 471.7 km
Apogee: 924.3 km
Inclination: 29.0 °
Period: 98.6 minutes
Semi major axis: 7068 km
RCS: 0.0303 m2 (small)
Launch date: July 14, 1977
Source: United States (US)
Launch site: AIR FORCE EASTERN TEST RANGE (AFETR)

Note: This is SATELLITE DEBRIS
Your satellite tracking list
PSLV DEB
Track 1 satellite(s)




NASA's NSSDC Master Catalog

Two Line Element Set (TLE):
1 10221U 77065AY  25186.52502019  .00011344  00000-0  10716-2 0  9997
2 10221  29.0283 251.4123 0320104 226.6691 130.6794 14.60719848421962
Source of the keplerian elements: AFSPC